Tracking 19638 objects as of 22-Apr-2019
HD Live streaming from Space Station
objects crossing your sky now

THORAD AGENA D DEB

Track THORAD AGENA D DEB now!
10-day predictions


NORAD ID: 4752
Int'l Code: 1970-025DA
Perigee: 868.5 km
Apogee: 909.1 km
Inclination: 99.9 °
Period: 102.6 minutes
Semi major axis: 7259 km
RCS: 0.095 m2 (small)
Launch date: April 8, 1970
Source: United States (US)
Launch site: AIR FORCE WESTERN TEST RANGE (AFWTR)

Note: This is SATELLITE DEBRIS
aabbcc
Your satellite tracking list
Your tracking list is empty




NASA's NSSDC Master Catalog

Two Line Element Set (TLE):
1  4752U 70025DA  19110.62132449  .00000827  00000-0  55902-3 0  9996
2  4752  99.8933 334.8194 0027963 359.1772   0.9341 14.03499974466636
Source of the keplerian elements: AFSPC